Overview Statistics Trail Chart Weather Telemetry Raw packets
 

This is the latest recevied weather packets stored in our database for station/object KC4GS-13. If no packets are shown the sender has not sent any weather packets the latest 10 day(s).

<< 32 33 34 35 36 37 38 >>
Time Temp. Humidity Pressure Rain* Wind** Luminosity Snow
1788400689 27.78° C 76% 1018.7 hPa 0 mm - 0 W/m² -
1788400389 27.78° C 76% 1019 hPa 0 mm - 0 W/m² -
1788400084 27.78° C 76% 1018.7 hPa 0 mm - 0 W/m² -
1788399784 28.33° C 75% 1018.7 hPa 0 mm - 0 W/m² -
1788399479 27.78° C 75% 1018.6 hPa 0 mm - 0 W/m² -
1788399178 28.33° C 75% 1018.6 hPa 0 mm - 0 W/m² -
1788398877 28.33° C 74% 1018.6 hPa 0 mm - 0 W/m² -
1788398571 28.33° C 73% 1018.4 hPa 0 mm - 0 W/m² -
1788398266 28.33° C 73% 1018.6 hPa 0 mm - 0 W/m² -
1788397965 28.33° C 73% 1018.2 hPa 0 mm - 0 W/m² -
1788397661 28.33° C 73% 1018.1 hPa 0 mm - 0 W/m² -
1788397356 28.33° C 72% 1018.2 hPa 0 mm - 0 W/m² -
1788397055 28.89° C 72% 1018.1 hPa 0 mm - 0 W/m² -
1788396750 28.89° C 72% 1017.9 hPa 0 mm - 0 W/m² -
1788396445 28.89° C 72% 1018.3 hPa 0 mm - 0 W/m² -
1788396169 29.44° C 71% 1017.8 hPa 0 mm - 0 W/m² -
1788395835 29.44° C 71% 1018.2 hPa 0 mm - 0 W/m² -
1788395531 30° C 69% 1018 hPa 0 mm - 0 W/m² -
1788395226 30° C 68% 1017.7 hPa 0 mm - 0 W/m² -
1788394920 30° C 67% 1017.8 hPa 0 mm - 0 W/m² -
1788394615 30.56° C 67% 1017.7 hPa 0 mm - 0 W/m² -
1788394309 30.56° C 67% 1017.7 hPa 0 mm - 0 W/m² -
1788394005 31.11° C 66% 1017.7 hPa 0 mm - 0 W/m² -
1788393704 31.11° C 64% 1017.8 hPa 0 mm - 0 W/m² -
1788393402 31.67° C 63% 1017.6 hPa 0 mm - 0 W/m² -

* Rain latest hour (hover to see other rain measurements)
** Current wind speed in m/s (hover to see current wind gust speed)